Simultaneous Nadir Overpasses (SNOs) Predictions

Prediction of SNOs between METOP-A and NOAA-19 Satellite Orbit:

Table of predicted SNOs for the next 14.0 days since TLE Epoch: 8/2/2019
Index Date (METOP-A) Time (METOP-A) Lat,Lon (METOP-A) SZA (METOP-A ) Date (NOAA-19) Time (NOAA-19) Lat,Lon (NOAA-19) SZA (NOAA-19 ) Distance(km) Time Diff (sec)
1 08/09/2019 22:01:05 79.85,-137.95 64.26 08/09/2019 22:00:09 79.87,-137.99 64.27 2.87 56
2 08/09/2019 22:51:46 -79.84, 29.35 115.74 08/09/2019 22:51:06 -79.86, 29.34 115.72 2.50 40
3 08/09/2019 23:42:25 79.86,-163.20 64.29 08/09/2019 23:42:09 79.85,-163.25 64.28 1.15 16
4 08/10/2019 00:33:06 -79.85, 4.11 115.71 08/10/2019 00:33:06 -79.85, 4.07 115.71 1.12 0
5 08/10/2019 01:23:46 79.83, 171.27 64.28 08/10/2019 01:24:10 79.86, 171.19 64.31 2.93 24
6 08/10/2019 02:14:27 -79.83, -21.42 115.71 08/10/2019 02:15:07 -79.85, -21.49 115.69 2.63 40
7 08/10/2019 03:05:06 79.84, 146.02 64.32 08/10/2019 03:06:10 79.84, 145.93 64.32 2.06 64




NCC Satellite Simultaneous Nadir Overpasses (SNOs) Prediction Service
